Regional Weather Roundup
Issued by NWS

Home | Current Version | Previous Version | Text Only | Print | Product List | Glossary On
Versions: 1 2 3 4 5 6 7 8 9 10 11 12 13 14 15 16 17 18 19 20 21 22 23 24 25 26 27 28 29 30 31 32 33 34 35 36 37 38 39 40 41 42 43 44 45 46 47 48 49 50
000
ASUS43 KLSX 310207
RWRMO

WEATHER SUMMARY FOR MISSOURI
NATIONAL WEATHER SERVICE SPRINGFIELD MO
900 PM CDT WED JUL 30 2014

NOTE: "FAIR" INDICATES FEW OR NO CLOUDS BELOW 12,000 FEET WITH NO
       SIGNIFICANT WEATHER AND/OR OBSTRUCTIONS TO VISIBILITY.
       CURRENT SKY AND/OR WEATHER CONDITIONS ARE NOT AVAILABLE FOR
       CHILLICOTHE AND FARMINGTON.

MOZ001>031-035>038-043-044-053-054-310300-
...NORTHERN AND WESTERN MISSOURI...

CITY           SKY/WX    TMP DP  RH WIND       PRES   REMARKS
KANSAS CTY INT PTCLDY    71  58  63 N6        30.08S
KANSAS C DTWN  PTCLDY    76  55  48 E3        30.06S
LEE`S SUMMIT   MOCLDY    70  60  70 SW3       30.08S
ST JOSEPH      CLEAR     68  60  75 NW3       30.08S
CHILLICOTHE      N/A     69  60  73 CALM      30.08R
KIRKSVILLE     CLEAR     65  60  84 CALM      30.09R

$$
MOZ066>068-077>081-088>096-101>105-310300-
...SOUTHWEST MISSOURI...

CITY           SKY/WX    TMP DP  RH WIND       PRES   REMARKS
SPRINGFIELD    LGT RAIN  67  65  93 S3        30.08F
JOPLIN         CLOUDY    66  65  96 SE6       30.07F

$$
MOZ032>034-039>042-045>050-055>058-069>072-310300-
...CENTRAL MISSOURI...

CITY           SKY/WX    TMP DP  RH WIND       PRES   REMARKS
COLUMBIA       MOCLDY    71  59  65 SW6       30.07R
JEFFERSON CITY CLOUDY    73  59  61 W5        30.05S
ROLLA          CLOUDY    67  61  81 CALM      30.06S
SEDALIA        MOCLDY    71  60  68 SW5       30.08S
WHITEMAN AFB   CLEAR     69  53  56 SW2       30.07S
OSAGE BEACH    CLOUDY    66  63  88 CALM      30.07S

$$
MOZ051-052-059>065-310300-
...EAST CENTRAL MISSOURI...

CITY           SKY/WX    TMP DP  RH WIND       PRES   REMARKS
ST LOUIS INTL  MOCLDY    76  57  51 N3        30.05R
SPIRIT OF STL  MOCLDY    70  60  70 CALM      30.04R
ST CHARLES     PTCLDY    69  63  81 N3        30.04R

$$
MOZ072>076-082>087-097>100-106>115-310300-
...SOUTH CENTRAL AND SOUTHEAST MISSOURI...

CITY           SKY/WX    TMP DP  RH WIND       PRES   REMARKS
CAPE GIRARDEAU CLOUDY    67  63  87 CALM      30.05S
FARMINGTON     CLOUDY    70  63  78 CALM      30.09S
POPLAR BLUFF   CLOUDY    72  64  76 CALM      30.05S
WEST PLAINS    CLOUDY    67  65  93 W3        30.09F

$$


USA.gov is the U.S. government's official web portal to all federal, state and local government web resources and services.